GW0115 Weather Reports


Display with metric or nautical units.
time (UTC)temp
F
wind
direction
speed
MPH
gust
MPH
rain 1hr
in
rain 24hr
in
rain mn
in
humidity
%
barometer
mb
20260502201604 51 0 0.0 6.0 0.00 0.05 0.05 60 1010.2
20260502200059 51 0 0.0 7.0 0.00 0.05 0.05 62 1010.1
20260502194606 51 0 0.0 0.0 0.00 0.05 0.05 64 1010.3
20260502193104 51 0 0.0 4.0 0.00 0.05 0.05 63 1010.3
20260502191601 51 0 0.0 0.0 0.00 0.05 0.05 69 1010.1
20260502190106 51 0 0.0 0.0 0.00 0.05 0.05 66 1010.1
20260502184558 51 0 0.0 0.0 0.00 0.05 0.05 64 1010.2
20260502183055 50 0 0.0 3.0 0.00 0.05 0.05 67 1010.3
20260502181557 51 0 0.0 0.0 0.00 0.05 0.05 66 1010.5
20260502180126 49 0 0.0 7.0 0.00 0.05 0.05 70 1010.4
20260502163051 49 0 0.0 0.0 0.00 0.05 0.05 74 1010.9
20260502161554 48 0 0.0 0.0 0.00 0.05 0.05 73 1010.8
20260502151600 46 71 0.0 5.0 0.00 0.05 0.05 82 1011.3
20260502130103 44 0 0.0 0.0 0.00 0.05 0.05 88 1011.6
20260502123053 43 0 0.0 0.0 0.00 0.05 0.05 89 1011.8
20260502121601 43 0 0.0 0.0 0.00 0.05 0.05 89 1011.7
20260502114554 43 0 0.0 0.0 0.00 0.05 0.05 91 1011.5
20260502113058 42 0 0.0 0.0 0.00 0.05 0.05 91 1011.5
20260502111602 42 0 0.0 0.0 0.00 0.05 0.05 92 1011.5
20260502110056 42 0 0.0 0.0 0.00 0.05 0.05 92 1011.3
20260502104559 42 0 0.0 0.0 0.00 0.05 0.05 93 1011.2
20260502103105 42 0 0.0 0.0 0.00 0.05 0.05 93 1011.1
20260502101620 42 0 0.0 0.0 0.00 0.05 0.05 93 1010.9
20260502100108 42 0 0.0 0.0 0.00 0.05 0.05 93 1010.8
20260502080104 43 0 0.0 0.0 0.01 0.04 0.04 93 1010.7
20260502070053 43 0 0.0 0.0 0.00 0.03 0.03 92 1010.6
20260502064551 44 0 0.0 0.0 0.01 0.03 0.03 92 1010.8
20260502063103 44 0 0.0 0.0 0.02 0.03 0.03 92 1010.8
20260502061552 44 0 0.0 0.0 0.02 0.03 0.03 91 1010.8
20260502060108 44 0 0.0 0.0 0.02 0.03 0.03 91 1011.0
20260502054555 44 0 0.0 0.0 0.01 0.02 0.02 90 1011.1
20260502053101 44 0 0.0 0.0 0.01 0.01 0.01 90 1011.1
20260502051559 44 0 0.0 0.0 0.01 0.01 0.01 89 1011.2
20260502050059 44 0 0.0 0.0 0.01 0.01 0.01 88 1011.2
20260502044555 45 0 0.0 0.0 0.01 0.01 0.01 88 1011.3
20260502043053 45 0 0.0 0.0 0.00 0.00 0.00 86 1011.2
20260502041550 46 0 0.0 0.0 0.00 0.00 0.00 85 1011.3
20260502040051 46 0 0.0 0.0 0.00 0.00 0.00 82 1011.2
20260502034553 47 0 0.0 0.0 0.00 0.00 0.00 80 1011.2
20260502033055 48 0 0.0 0.0 0.00 0.00 0.00 77 1011.2
20260502031551 49 0 0.0 0.0 0.00 0.00 0.00 71 1011.0
20260502030054 49 0 0.0 0.0 0.00 0.00 0.00 68 1011.2
20260502024551 50 0 0.0 0.0 0.00 0.00 0.00 61 1011.2
20260502023054 51 0 0.0 0.0 0.00 0.00 0.00 56 1011.1
20260502021551 51 0 0.0 0.0 0.00 0.00 0.00 53 1010.9
20260502020052 50 0 0.0 0.0 0.00 0.00 0.00 57 1010.9
20260502014601 50 0 0.0 0.0 0.00 0.00 0.00 54 1010.7
20260502013057 50 0 0.0 0.0 0.00 0.00 0.00 58 1010.8
20260502011604 51 0 0.0 1.0 0.00 0.00 0.00 54 1010.9
20260502010052 51 0 0.0 0.0 0.00 0.00 0.00 55 1010.7
20260502004603 51 0 0.0 0.0 0.00 0.00 0.00 57 1010.7
20260502003058 51 0 0.0 0.0 0.00 0.00 0.00 55 1010.5
20260502001549 52 0 0.0 0.0 0.00 0.00 0.00 52 1010.2
20260502000106 53 0 0.0 0.0 0.00 0.00 0.00 48 1010.0
20260501234551 53 0 0.0 0.0 0.00 0.00 0.00 48 1009.7
20260501233059 54 0 0.0 0.0 0.00 0.00 0.00 46 1009.5
20260501231602 55 0 0.0 0.0 0.00 0.00 0.00 43 1009.3
20260501230057 55 0 0.0 0.0 0.00 0.00 0.00 43 1008.9
20260501224602 56 0 0.0 0.0 0.00 0.00 0.00 42 1008.9
20260501223055 56 0 0.0 3.0 0.00 0.00 0.00 42 1008.8
20260501221607 56 0 0.0 1.0 0.00 0.00 0.00 39 1008.9
20260501220054 56 0 0.0 0.0 0.00 0.00 0.00 37 1008.9
20260501214552 57 0 0.0 0.0 0.00 0.00 0.00 38 1009.0
20260501213048 58 0 0.0 5.0 0.00 0.00 0.00 33 1008.9
20260501211556 57 81 0.0 3.0 0.00 0.00 0.00 36 1008.7
20260501210051 58 0 2.0 8.0 0.00 0.00 0.00 34 1008.8
20260501204549 56 0 0.0 8.0 0.00 0.00 0.00 35 1008.8
20260501203050 57 0 0.0 3.0 0.00 0.00 0.00 45 1008.8